• In Portugal
  • List of Countries
  • For 7 days
  • Water Temperature
  • Satellite Maps
  • Weather Map
  • Weather Widgets
  • user-avatar
    Login

    Hourly Weather Sunny Beach

    Today, 16 October, Tuesday

    Time Temperature Precipitation Wind Pressure Humidity
    00:00 +12°C° 0 mm 3 mps 741 mmHg 86%
    01:00 +12°C° 0 mm 3 mps 741 mmHg 86%
    02:00 +12°C° 0 mm 3 mps 741 mmHg 87%
    03:00 +12°C° 0 mm 3 mps 741 mmHg 87%
    04:00 +11°C° 0 mm 3 mps 741 mmHg 88%
    05:00 +11°C° 0 mm 3 mps 740 mmHg 88%
    06:00 +12°C° 0 mm 3 mps 741 mmHg 85%
    07:00 +12°C° 0 mm 3 mps 741 mmHg 82%
    08:00 +13°C° 0 mm 3 mps 741 mmHg 77%
    09:00 +16°C° 0 mm 3 mps 741 mmHg 71%
    10:00 +18°C° 0 mm 3 mps 741 mmHg 64%
    11:00 +19°C° 0 mm 4 mps 741 mmHg 57%
    12:00 +20°C° 0 mm 4 mps 741 mmHg 55%
    13:00 +21°C° 0 mm 4 mps 741 mmHg 54%
    14:00 +22°C° 0 mm 4 mps 741 mmHg 52%
    15:00 +21°C° 0 mm 4 mps 741 mmHg 56%
    16:00 +20°C° 0 mm 4 mps 740 mmHg 61%
    17:00 +19°C° 0 mm 4 mps 740 mmHg 66%
    18:00 +18°C° 0 mm 3 mps 740 mmHg 71%
    19:00 +16°C° 0 mm 3 mps 740 mmHg 76%
    20:00 +15°C° 0 mm 2 mps 740 mmHg 82%
    21:00 +15°C° 0 mm 2 mps 740 mmHg 82%
    22:00 +15°C° 0 mm 2 mps 740 mmHg 81%
    23:00 +14°C° 0 mm 2 mps 740 mmHg 81%

    Tomorrow, 17 October, Wednesday

    Time Temperature Precipitation Wind Pressure Humidity
    00:00 +14°C° 0 mm 2 mps 740 mmHg 81%
    01:00 +14°C° 0 mm 2 mps 740 mmHg 80%
    02:00 +14°C° 0 mm 2 mps 740 mmHg 79%
    03:00 +13°C° 0 mm 2 mps 739 mmHg 78%
    04:00 +12°C° 0 mm 3 mps 739 mmHg 76%
    05:00 +12°C° 0 mm 3 mps 739 mmHg 75%
    06:00 +13°C° 0 mm 3 mps 739 mmHg 71%
    07:00 +13°C° 0 mm 3 mps 739 mmHg 67%
    08:00 +14°C° 0 mm 3 mps 739 mmHg 62%
    09:00 +17°C° 0 mm 4 mps 739 mmHg 57%
    10:00 +19°C° 0 mm 4 mps 739 mmHg 53%
    11:00 +21°C° 0 mm 4 mps 739 mmHg 48%
    12:00 +21°C° 0 mm 4 mps 739 mmHg 48%
    13:00 +21°C° 0 mm 4 mps 739 mmHg 49%
    14:00 +22°C° 0 mm 5 mps 739 mmHg 50%
    15:00 +21°C° 0.1 mm 4 mps 738 mmHg 56%
    16:00 +20°C° 0.1 mm 4 mps 738 mmHg 62%
    17:00 +19°C° 0.1 mm 4 mps 738 mmHg 67%
    18:00 +18°C° 0 mm 3 mps 738 mmHg 70%
    19:00 +17°C° 0 mm 3 mps 738 mmHg 74%
    20:00 +16°C° 0 mm 3 mps 738 mmHg 77%
    21:00 +16°C° 0 mm 3 mps 738 mmHg 80%
    22:00 +15°C° 0 mm 2 mps 738 mmHg 83%
    23:00 +15°C° 0 mm 2 mps 738 mmHg 86%

    Day after tomorrow, 18 October, Thursday

    Time Temperature Precipitation Wind Pressure Humidity
    00:00 +15°C° 0.1 mm 2 mps 738 mmHg 88%
    01:00 +14°C° 0.1 mm 3 mps 737 mmHg 89%
    02:00 +13°C° 0.1 mm 3 mps 737 mmHg 90%
    03:00 +13°C° 0.1 mm 3 mps 737 mmHg 91%
    04:00 +13°C° 0.1 mm 3 mps 737 mmHg 91%
    05:00 +13°C° 0.1 mm 3 mps 737 mmHg 91%
    06:00 +13°C° 0 mm 3 mps 737 mmHg 89%
    07:00 +14°C° 0 mm 3 mps 737 mmHg 88%
    08:00 +14°C° 0 mm 3 mps 737 mmHg 86%
    09:00 +16°C° 0 mm 3 mps 737 mmHg 80%
    10:00 +18°C° 0 mm 3 mps 737 mmHg 74%
    11:00 +19°C° 0 mm 3 mps 737 mmHg 69%
    12:00 +20°C° 0.1 mm 3 mps 737 mmHg 65%
    13:00 +20°C° 0.1 mm 3 mps 737 mmHg 61%
    14:00 +21°C° 0.1 mm 3 mps 737 mmHg 57%
    15:00 +20°C° 0.2 mm 3 mps 737 mmHg 61%
    16:00 +20°C° 0.2 mm 3 mps 736 mmHg 65%
    17:00 +19°C° 0.2 mm 3 mps 736 mmHg 70%
    18:00 +18°C° 0 mm 3 mps 737 mmHg 76%
    19:00 +16°C° 0 mm 2 mps 737 mmHg 82%
    20:00 +15°C° 0 mm 2 mps 737 mmHg 88%
    21:00 +15°C° 0 mm 2 mps 737 mmHg 89%
    22:00 +15°C° 0 mm 1 mps 737 mmHg 90%
    23:00 +14°C° 0 mm 1 mps 737 mmHg 91%

    19 October, Friday

    Time Temperature Precipitation Wind Pressure Humidity
    00:00 +14°C° 0 mm 1 mps 737 mmHg 92%
    01:00 +14°C° 0 mm 1 mps 737 mmHg 92%
    02:00 +14°C° 0 mm 1 mps 737 mmHg 92%
    03:00 +14°C° 0 mm 1 mps 737 mmHg 92%
    04:00 +14°C° 0 mm 1 mps 737 mmHg 92%
    05:00 +13°C° 0 mm 1 mps 737 mmHg 91%
    06:00 +14°C° 0 mm 1 mps 737 mmHg 88%
    07:00 +15°C° 0 mm 1 mps 737 mmHg 84%
    08:00 +16°C° 0 mm 1 mps 738 mmHg 80%
    09:00 +18°C° 0 mm 1 mps 738 mmHg 72%
    10:00 +20°C° 0 mm 1 mps 738 mmHg 63%
    11:00 +21°C° 0 mm 2 mps 738 mmHg 55%
    12:00 +23°C° 0 mm 2 mps 738 mmHg 52%
    13:00 +23°C° 0 mm 2 mps 737 mmHg 49%
    14:00 +24°C° 0 mm 2 mps 737 mmHg 46%
    15:00 +23°C° 0 mm 2 mps 737 mmHg 50%
    16:00 +21°C° 0 mm 2 mps 737 mmHg 54%
    17:00 +20°C° 0 mm 2 mps 737 mmHg 57%
    18:00 +20°C° 0 mm 1 mps 737 mmHg 62%
    19:00 +19°C° 0 mm 1 mps 737 mmHg 66%
    20:00 +18°C° 0 mm 1 mps 738 mmHg 70%
    21:00 +18°C° 0 mm 1 mps 738 mmHg 71%
    22:00 +16°C° 0 mm 1 mps 738 mmHg 72%
    23:00 +15°C° 0 mm 0 mps 738 mmHg 72%

    20 October, Saturday

    Time Temperature Precipitation Wind Pressure Humidity
    00:00 +16°C° 0 mm 1 mps 738 mmHg 73%
    01:00 +15°C° 0 mm 1 mps 738 mmHg 74%
    02:00 +15°C° 0 mm 1 mps 738 mmHg 74%
    03:00 +15°C° 0 mm 1 mps 738 mmHg 75%
    04:00 +15°C° 0 mm 1 mps 737 mmHg 75%
    05:00 +14°C° 0 mm 1 mps 737 mmHg 75%
    06:00 +15°C° 0 mm 1 mps 738 mmHg 72%
    07:00 +16°C° 0 mm 1 mps 738 mmHg 68%
    08:00 +16°C° 0 mm 1 mps 738 mmHg 64%
    09:00 +18°C° 0 mm 2 mps 738 mmHg 58%
    10:00 +20°C° 0 mm 2 mps 738 mmHg 51%
    11:00 +23°C° 0 mm 2 mps 739 mmHg 45%
    12:00 +23°C° 0 mm 2 mps 738 mmHg 43%
    13:00 +24°C° 0 mm 2 mps 738 mmHg 41%
    14:00 +24°C° 0 mm 2 mps 738 mmHg 39%
    15:00 +23°C° 0 mm 2 mps 738 mmHg 43%
    16:00 +21°C° 0 mm 2 mps 738 mmHg 46%
    17:00 +20°C° 0 mm 2 mps 738 mmHg 50%
    18:00 +19°C° 0 mm 2 mps 738 mmHg 54%
    19:00 +19°C° 0 mm 1 mps 738 mmHg 57%
    20:00 +16°C° 0 mm 1 mps 738 mmHg 61%
    21:00 +16°C° 0 mm 1 mps 738 mmHg 63%
    22:00 +15°C° 0 mm 1 mps 738 mmHg 64%
    23:00 +15°C° 0 mm 1 mps 738 mmHg 65%

    21 October, Sunday

    Time Temperature Precipitation Wind Pressure Humidity
    00:00 +15°C° 0 mm 1 mps 738 mmHg 67%
    01:00 +14°C° 0 mm 1 mps 738 mmHg 68%
    02:00 +14°C° 0 mm 1 mps 738 mmHg 69%
    03:00 +14°C° 0 mm 1 mps 738 mmHg 70%
    04:00 +13°C° 0 mm 1 mps 738 mmHg 70%
    05:00 +13°C° 0 mm 1 mps 738 mmHg 71%
    06:00 +14°C° 0 mm 1 mps 738 mmHg 70%
    07:00 +14°C° 0 mm 1 mps 738 mmHg 68%
    08:00 +15°C° 0 mm 2 mps 738 mmHg 66%
    09:00 +17°C° 0 mm 2 mps 738 mmHg 61%
    10:00 +18°C° 0 mm 3 mps 738 mmHg 55%
    11:00 +20°C° 0 mm 3 mps 738 mmHg 50%
    12:00 +20°C° 0 mm 4 mps 738 mmHg 50%
    13:00 +20°C° 0 mm 4 mps 737 mmHg 50%
    14:00 +21°C° 0 mm 4 mps 737 mmHg 51%
    15:00 +19°C° 0 mm 4 mps 737 mmHg 57%
    16:00 +18°C° 0 mm 4 mps 736 mmHg 62%
    17:00 +17°C° 0 mm 4 mps 736 mmHg 68%
    18:00 +15°C° 0 mm 4 mps 737 mmHg 74%
    19:00 +14°C° 0 mm 4 mps 737 mmHg 79%
    20:00 +14°C° 0 mm 4 mps 737 mmHg 85%
    21:00 +13°C° 0 mm 4 mps 737 mmHg 85%
    22:00 +13°C° 0 mm 4 mps 737 mmHg 86%
    23:00 +13°C° 0 mm 4 mps 737 mmHg 86%
    Show more